Location: The Saddle
(36.8333°N, 80.3417°W)
Time: 00:39:17
(UTC-04:00)

SEEDS - Pass Details

Date: 23 March 2026
Orbit: 470 x 477 km, 97.8° (Epoch: 20 April)

Event Time Altitude Azimuth Distance (km) Brightness Sun altitude
Rises 06:08:50 0° 23° (NNE) 2,537 ? -15.0°
Reaches altitude 10° 06:11:05 10° 35° (NE) 1,651 ? -14.6°
Maximum altitude 06:14:14 30° 98° (E) 886 ? -14.0°
Drops below altitude 10° 06:17:21 10° 160° (SSE) 1,633 ? -13.4°
Sets 06:19:34 0° 172° (S) 2,504 ? -12.9°
